WD6AWP Weather Reports


time (UTC)temp
F
wind
direction
speed
knots
gust
knots
rain 1hr
in
rain 24hr
in
rain mn
in
humidity
%
barometer
mb
20260506094550 57 233 0.0 0.0 0.00 0.03 0.00 89 1017.1
20260506093052 57 233 0.0 0.0 0.00 0.03 0.00 88 1017.2
20260506091547 58 223 0.0 0.0 0.00 0.03 0.00 88 1017.2
20260506090046 58 223 0.0 0.0 0.00 0.03 0.00 88 1017.3
20260506084545 58 219 0.0 0.0 0.00 0.03 0.00 88 1017.4
20260506083045 59 213 0.0 0.0 0.00 0.03 0.00 89 1017.5
20260506081548 59 213 0.0 0.0 0.00 0.03 0.00 89 1017.5
20260506073040 59 269 0.0 2.6 0.00 0.03 0.00 88 1017.5
20260506071548 59 269 0.0 2.6 0.00 0.03 0.00 88 1017.5
20260506061535 60 259 0.0 5.2 0.00 0.03 0.03 87 1017.1
20260506044530 61 261 2.6 7.8 0.00 0.03 0.03 84 1016.3
20260506043023 61 244 4.3 7.8 0.00 0.03 0.03 84 1016.2
20260506041524 61 284 1.7 8.7 0.00 0.03 0.03 84 1016.2
20260506040020 61 240 5.2 9.6 0.00 0.03 0.03 83 1015.9
20260506034519 61 286 6.1 10.4 0.00 0.03 0.03 82 1015.6
20260506033018 62 281 4.3 9.6 0.00 0.03 0.03 82 1015.5
20260506031518 62 278 3.5 10.4 0.00 0.03 0.03 81 1015.3
20260506030020 62 289 7.8 13.0 0.00 0.03 0.03 81 1015.1
20260506024521 62 275 7.0 13.9 0.00 0.03 0.03 80 1014.8
20260506023016 62 265 7.8 13.0 0.00 0.03 0.03 80 1014.6
20260506021515 63 252 6.1 13.9 0.00 0.03 0.03 79 1014.4
20260506020014 63 277 6.1 13.0 0.00 0.03 0.03 78 1014.5
20260506014514 63 290 7.8 13.0 0.00 0.03 0.03 77 1014.3
20260506013013 64 315 7.8 15.6 0.00 0.03 0.03 74 1014.1
20260506011512 65 286 8.7 14.8 0.00 0.03 0.03 75 1014.2
20260506010012 64 259 6.1 15.6 0.00 0.03 0.03 75 1014.2
20260506004512 65 269 8.7 16.5 0.00 0.03 0.03 73 1014.1
20260506003011 66 275 12.2 18.2 0.00 0.03 0.03 72 1013.9
20260506001510 66 271 8.7 17.4 0.00 0.03 0.03 74 1014.1
20260506000010 66 258 9.6 16.5 0.00 0.03 0.03 71 1014.1
20260505234518 67 271 9.6 16.5 0.00 0.03 0.03 71 1014.1
20260505233015 67 268 11.3 16.5 0.00 0.03 0.03 69 1014.2
20260505231511 66 267 10.4 20.0 0.00 0.03 0.03 69 1014.2
20260505230009 66 266 8.7 17.4 0.00 0.03 0.03 71 1014.3
20260505224507 68 252 10.4 15.6 0.00 0.03 0.03 67 1014.4
20260505223010 68 236 9.6 15.6 0.00 0.03 0.03 67 1014.4
20260505221505 68 214 9.6 18.2 0.00 0.03 0.03 66 1014.7
20260505220008 68 284 5.2 14.8 0.00 0.03 0.03 68 1014.7
20260505214540 68 246 8.7 13.9 0.00 0.03 0.03 67 1014.8
20260505213002 68 232 4.3 13.9 0.00 0.03 0.03 68 1014.9
20260505211502 68 290 7.8 15.6 0.00 0.03 0.03 65 1015.1
20260505210003 68 223 5.2 12.2 0.00 0.03 0.03 65 1015.1
20260505204601 68 240 5.2 10.4 0.00 0.03 0.03 67 1015.1
20260505203055 68 226 4.3 9.6 0.00 0.03 0.03 68 1015.0
20260505201602 68 242 4.3 12.2 0.00 0.03 0.03 67 1015.1
20260505200101 68 278 5.2 10.4 0.00 0.03 0.03 66 1015.2
20260505194555 67 261 6.1 13.9 0.00 0.03 0.03 68 1015.3
20260505193046 67 227 4.3 12.2 0.00 0.03 0.03 68 1015.4
20260505191545 67 208 4.3 12.2 0.00 0.03 0.03 70 1015.5
20260505190049 67 227 4.3 13.0 0.00 0.03 0.03 69 1015.4
20260505184544 66 223 7.8 13.0 0.00 0.03 0.03 70 1015.5
20260505183048 65 242 6.1 13.0 0.00 0.03 0.03 71 1015.5
20260505181541 67 235 6.1 13.0 0.00 0.03 0.03 67 1015.3
20260505180038 67 232 5.2 12.2 0.00 0.03 0.03 69 1015.3
20260505174535 67 231 3.5 11.3 0.00 0.03 0.03 69 1015.2
20260505173039 65 198 4.3 13.0 0.00 0.03 0.03 71 1015.1
20260505171535 65 254 7.8 13.0 0.00 0.03 0.03 70 1014.9
20260505170034 65 271 7.0 13.0 0.00 0.03 0.03 72 1014.9
20260505164526 64 261 5.2 10.4 0.00 0.03 0.03 73 1014.7
20260505163026 64 248 7.0 12.2 0.00 0.03 0.03 73 1014.5
20260505161527 63 252 3.5 10.4 0.00 0.03 0.03 74 1014.4
20260505153016 61 285 3.5 7.8 0.00 0.03 0.03 83 1014.3
20260505151510 59 275 2.6 9.6 0.00 0.03 0.03 84 1014.2
20260505124600 55 279 0.0 0.0 0.00 0.03 0.03 93 1013.4
20260505123052 56 279 0.0 0.0 0.00 0.03 0.03 93 1013.5
20260505121550 56 279 0.0 0.0 0.00 0.03 0.03 93 1013.4
20260505120052 56 279 0.0 0.0 0.00 0.03 0.03 93 1013.3
20260505114548 57 279 0.0 0.0 0.00 0.03 0.03 93 1013.3
20260505113047 57 279 0.0 0.0 0.00 0.03 0.03 93 1013.2
20260505111547 57 279 0.0 3.5 0.00 0.03 0.03 93 1013.4
20260505101544 57 36 0.0 0.0 0.01 0.03 0.03 93 1013.5
20260505100042 57 36 0.0 3.5 0.03 0.03 0.03 92 1013.4